This is the latest recevied weather packets stored in our database for station/object N3OZD-10. If no packets are shown the sender has not sent any weather packets the latest 10 day(s).
| Time | Temp. | Humidity | Pressure | Rain* | Wind** | Luminosity | Snow |
|---|---|---|---|---|---|---|---|
| 1777527455 | 10.56° C | 99% | 1007.6 hPa | 0.76 mm | - | - | - |
| 1777527155 | 10.56° C | 99% | 1007.6 hPa | 0.76 mm | - | - | - |
| 1777526855 | 10.56° C | 99% | 1007.9 hPa | 0.76 mm | - | - | - |
| 1777526554 | 10.56° C | 99% | 1007.9 hPa | 0.76 mm | - | - | - |
| 1777526254 | 10.56° C | 99% | 1008 hPa | 0.76 mm | - | - | - |
| 1777525955 | 10.56° C | 99% | 1008 hPa | 0.51 mm | - | - | - |
| 1777525655 | 10.56° C | 99% | 1008 hPa | 0 mm | - | - | - |
| 1777525355 | 11.11° C | 99% | 1008 hPa | 0 mm | - | - | - |
| 1777525055 | 11.11° C | 99% | 1008.1 hPa | 0 mm | - | - | - |
| 1777524755 | 10.56° C | 99% | 1008.1 hPa | 0 mm | - | - | - |
| 1777524455 | 10.56° C | 99% | 1008.1 hPa | 0 mm | - | - | - |
| 1777524155 | 10.56° C | 99% | 1008 hPa | 0 mm | - | - | - |
| 1777523855 | 11.11° C | 99% | 1007.7 hPa | 0 mm | - | - | - |
| 1777523559 | 11.11° C | 99% | 1007.7 hPa | 0 mm | - | - | - |
| 1777523255 | 11.11° C | 99% | 1007.6 hPa | 0 mm | - | - | - |
| 1777522955 | 11.11° C | 99% | 1007.5 hPa | 0 mm | - | - | - |
| 1777522655 | 11.11° C | 99% | 1007.6 hPa | 0 mm | - | - | - |
| 1777522355 | 11.11° C | 99% | 1007.7 hPa | 0 mm | - | - | - |
| 1777522055 | 11.11° C | 99% | 1008 hPa | 0.51 mm | - | - | - |
| 1777521755 | 11.11° C | 99% | 1008.1 hPa | 0.76 mm | - | - | - |
| 1777521455 | 11.11° C | 99% | 1008.2 hPa | 1.02 mm | - | - | - |
| 1777521155 | 11.11° C | 99% | 1008.3 hPa | 1.02 mm | - | - | - |
| 1777520855 | 11.11° C | 99% | 1008.4 hPa | 1.02 mm | - | - | - |
| 1777520555 | 11.11° C | 99% | 1008.5 hPa | 1.02 mm | - | - | - |
| 1777520255 | 11.11° C | 99% | 1008.6 hPa | 1.02 mm | - | - | - |
* Rain latest hour (hover to see other rain measurements)
** Current wind speed in m/s (hover to see current wind gust speed)